#timestamp,LO_Frequency,Hit 
1499644815.6,286047004.7,N
1499644835.5,286047006.8,N
1499644855.3,286047007.6,N
1499644875.1,286047004.8,N
1499644895.9,286047004.9,N
1499644915.7,286047005.6,N
1499644935.5,286047006.0,N
1499644955.4,286047002.9,N
1499644975.2,286047009.2,N
1499644995.1,286047006.6,N
1499644996.0,286047006.6,N
1499645015.8,286047007.4,N
1499645035.6,286047005.5,N
1499645055.5,286047004.6,N
1499645075.3,286047005.2,N
1499645095.1,286047003.1,N
1499645115.9,286047007.1,N
1499645135.7,286047005.1,N
1499645155.6,286047005.2,N
1499645175.4,286047006.6,N
1499645195.2,286047004.8,N
1499645215.1,286047004.2,N
1499645216.0,286047004.2,N
1499645235.8,286047007.1,N
1499645255.7,286047005.4,N
1499645275.5,286047002.9,N
1499645295.3,286047005.4,N
1499645315.2,286047002.9,N
1499645335.0,286047005.9,N
1499645335.9,286047005.9,N
1499645355.8,286047005.1,N
1499645375.6,286047004.7,N
1499645395.4,286047006.0,N
1499645415.3,286047005.7,N
1499645435.1,286047003.0,N
1499645455.8,286047005.7,N
1499645475.7,286047003.6,N
1499645495.5,286047003.8,N
1499645515.4,286047003.2,N
1499645535.2,286047003.6,N
1499645555.0,286047003.0,N
1499645555.9,286047003.0,N
1499645575.8,286047003.8,N
1499645595.6,286047003.2,N
1499645615.4,286047004.1,N
1499645635.3,286047003.8,N
1499645655.1,286047003.9,N
1499645675.9,286047001.4,N
1499645695.7,286047004.2,N
1499645715.5,286047004.4,N
1499645735.4,286047003.2,N
1499645755.2,286047003.3,N
1499645775.0,286047005.8,N
1499645775.9,286047005.8,N
1499645795.8,286047003.5,N
1499645815.6,286047003.8,N
1499645835.5,286047003.1,N
1499645855.3,286047006.0,N
1499645875.1,286047005.8,N
1499645895.9,286047003.2,N
1499645915.7,286047001.7,N
1499645935.5,286047004.0,N
1499645955.4,286047003.0,N
1499645975.2,286047003.5,N
1499645995.0,286047005.1,N
1499645996.0,286047005.1,N
1499646015.8,286047005.5,N
1499646035.6,286047005.2,N
1499646055.5,286047005.5,N
1499646075.3,286047003.3,N
1499646095.1,286047005.4,N
1499646115.9,286047004.7,N
1499646135.7,286047005.3,N
1499646155.5,286047006.0,N
1499646175.4,286047005.6,N
1499646195.2,286047004.7,N
1499646215.1,286047004.6,N
1499646216.0,286047004.6,N
1499646235.8,286047005.0,N
1499646255.6,286047004.7,N
1499646275.5,286047005.1,N
1499646295.3,286047004.7,N
1499646315.1,286047005.6,N
1499646335.9,286047006.0,N
1499646355.7,286047003.5,N
1499646375.6,286047004.0,N
1499646395.4,286047004.0,N
1499646415.2,286047003.4,N
1499646435.1,286047005.8,N
1499646436.0,286047005.8,N
1499646455.8,286047004.7,N
1499646475.6,286047004.7,N
1499646495.5,286047005.8,N
1499646515.3,286047005.3,N
1499646535.2,286047004.5,N
1499646555.9,286047007.5,N
1499646575.7,286047004.7,N
1499646595.6,286047007.1,N
1499646615.4,286047007.2,N
1499646635.2,286047006.9,N
1499646655.1,286047004.8,N
1499646656.0,286047004.8,N
1499646675.8,286047007.6,N
1499646695.7,286047005.3,N
1499646745.5,286047007.4,Y
1499646755.5,286047004.0,N
1499646775.3,286046998.3,N
1499646795.1,286046996.5,N
1499646815.9,286046999.0,N
1499646835.7,286046998.7,N
1499646855.5,286046998.7,N
1499646875.4,286046998.9,N
1499646895.2,286046999.3,N
1499646915.0,286046999.5,N
1499646916.0,286046999.5,N
1499646935.8,286046998.1,N
1499646955.6,286046999.4,N
1499646975.5,286046998.7,N
1499646995.3,286046998.3,N
1499647015.1,286046998.8,N
1499647035.9,286046999.6,N
1499647055.7,286046998.4,N
1499647075.5,286046998.2,N
1499647095.4,286046998.2,N
1499647115.2,286046998.2,N
1499647135.1,286046998.8,N
1499647136.0,286046998.8,N
1499647155.8,286046998.5,N
1499647175.6,286046998.1,N
1499647195.5,286047001.1,N
1499647215.3,286047000.6,N
1499647235.1,286047000.9,N
1499647255.9,286047000.6,N
1499647275.7,286047000.9,N
1499647295.6,286046999.0,N
1499647315.4,286046998.1,N
1499647335.2,286046998.4,N
1499647355.1,286047001.2,N
1499647356.0,286047001.2,N
1499647375.8,286046998.9,N
1499647395.7,286046999.6,N
1499647415.5,286047001.2,N
1499647435.3,286046998.5,N
1499647455.2,286046998.4,N
1499647475.0,286047000.5,N
1499647475.9,286047000.5,N
1499647495.7,286046998.1,N
1499647515.6,286047001.0,N
1499647535.4,286047000.0,N
1499647555.3,286047001.2,N
1499647575.1,286046998.5,N
1499647576.0,286046998.5,N
1499647595.8,286046998.7,N
1499647615.7,286046998.5,N
1499647635.5,286046998.3,N
1499647655.3,286047001.1,N
1499647675.2,286047000.6,N
1499647695.0,286046998.5,N
1499647695.9,286046998.5,N
1499647715.8,286046998.6,N
1499647735.6,286047000.8,N
1499647755.4,286047000.8,N
1499647775.3,286047000.1,N
1499647795.1,286047002.2,N
1499647815.8,286047002.1,N
1499647835.7,286046999.9,N
1499647855.5,286047001.9,N
1499647875.3,286047003.9,N
1499647895.2,286047001.4,N
1499647915.0,286047001.3,N
1499647915.9,286047001.3,N
1499647935.8,286047001.5,N
1499647955.6,286047001.4,N
1499647975.4,286047001.4,N
1499647995.3,286047001.6,N
1499648015.1,286047003.8,N
1499648035.8,286047005.6,N
1499648055.7,286047003.0,N
1499648075.5,286047005.3,N
1499648095.4,286047004.6,N
1499648115.2,286047005.7,N
1499648135.0,286047003.1,N
1499648135.9,286047003.1,N
1499648155.8,286047003.0,N
1499648175.6,286047005.5,N
1499648195.4,286047005.9,N
1499648215.3,286047002.9,N
1499648235.1,286047001.6,N
1499648255.9,286047003.8,N
1499648275.7,286047004.3,N
1499648295.5,286047006.0,N
1499648315.4,286047004.2,N
1499648335.2,286047001.8,N
1499648355.0,286047003.7,N
1499648356.0,286047003.7,N
1499648375.8,286047004.1,N
1499648395.6,286047004.1,N
